Zurück zum Katalog

STARLINK-31370

AktivKommunikationVLEO
NORAD 59520·PAYLOAD·🇺🇸 United States

Gestartet Apr 17, 2024 von Cape Canaveral Space Force Station

Loading…

Nächste Überflüge (nächste 24 Stunden)

TLE

AktuellSource: CelesTrak SupGP

Epoche: Sep 14, 2026, 20:21 UTC

1 59520C 24073K   26257.84840278 -.00019592  00000+0 -70963-3 0  2572
2 59520  43.0032 329.9512 0001526 270.9715  54.0639 15.27588185    19

Verfolge STARLINK-31370 in Echtzeit mit AllMySat

Download on the App Store